Terug naar catalogus

NAVIGATOR

ActiefAmateurradioSSO
NORAD 69888·PAYLOAD·🇺🇸 United States
Deze satellietnaam is nog niet bevestigd door officiële bronnen.

Gelanceerd Jul 7, 2026 vanaf Vandenberg Space Force Base

Loading…

Volgende Passages (komende 24 uur)

TLE

VersSource: Space-Track

Epoch: Sep 14, 2026, 04:17 UTC

1 69888U 26156V   26257.17872861  .00001451  00000-0  15047-3 0  9992
2 69888  97.7485 156.4653 0003250 285.0817  75.0042 14.91510114 10109

Volg NAVIGATOR in realtime met AllMySat

Download on the App Store